Time,TemperatureF,DewpointF,PressureIn,WindDirection,WindDirectionDegrees,WindSpeedMPH,WindSpeedGustMPH,Humidity,HourlyPrecipIn,Conditions,Clouds,dailyrainin,SoftwareType,DateUTC
2013-07-10 00:08:00,78.6,75.0,29.82,ESE,110,0.0,-999.0,87,-99.99,,,0.11,weatherlink.com 1.10,2013-07-10 05:08:00,
2013-07-10 00:23:00,78.2,74.0,29.81,ESE,110,0.0,-999.0,88,-99.99,,,0.11,weatherlink.com 1.10,2013-07-10 05:23:00,
2013-07-10 00:38:00,77.8,74.0,29.81,ESE,110,0.0,-999.0,89,-99.99,,,0.11,weatherlink.com 1.10,2013-07-10 05:38:00,
2013-07-10 00:53:00,77.4,74.0,29.81,ESE,110,0.0,-999.0,90,-99.99,,,0.11,weatherlink.com 1.10,2013-07-10 05:53:00,
2013-07-10 01:08:00,77.0,74.0,29.81,ESE,110,0.0,-999.0,90,-99.99,,,0.11,weatherlink.com 1.10,2013-07-10 06:08:00,
2013-07-10 01:23:00,76.7,74.0,29.81,ESE,110,0.0,-999.0,90,-99.99,,,0.11,weatherlink.com 1.10,2013-07-10 06:23:00,
2013-07-10 01:38:00,76.3,73.0,29.81,ESE,110,0.0,-999.0,90,-99.99,,,0.11,weatherlink.com 1.10,2013-07-10 06:38:00,
2013-07-10 01:53:00,76.0,73.0,29.81,ESE,110,0.0,-999.0,90,-99.99,,,0.11,weatherlink.com 1.10,2013-07-10 06:53:00,
2013-07-10 02:08:00,75.7,73.0,29.81,ESE,108,0.0,-999.0,90,-99.99,,,0.11,weatherlink.com 1.10,2013-07-10 07:08:00,
2013-07-10 02:23:00,75.4,72.0,29.81,ESE,111,0.0,-999.0,89,-99.99,,,0.11,weatherlink.com 1.10,2013-07-10 07:23:00,
2013-07-10 02:38:00,75.2,72.0,29.81,NE,54,0.0,-999.0,88,-99.99,,,0.11,weatherlink.com 1.10,2013-07-10 07:38:00,
2013-07-10 02:53:00,75.1,71.0,29.81,ENE,72,0.0,-999.0,88,-99.99,,,0.11,weatherlink.com 1.10,2013-07-10 07:53:00,
2013-07-10 03:26:00,74.8,71.0,29.81,NW,320,0.0,-999.0,87,-99.99,,,0.11,weatherlink.com 1.10,2013-07-10 08:26:00,
2013-07-10 03:39:00,74.9,71.0,29.82,East,95,0.0,-999.0,87,-99.99,,,0.11,weatherlink.com 1.10,2013-07-10 08:39:00,
2013-07-10 03:54:00,75.0,71.0,29.82,East,99,0.0,-999.0,87,-99.99,,,0.11,weatherlink.com 1.10,2013-07-10 08:54:00,
2013-07-10 04:09:00,75.0,71.0,29.82,East,83,0.0,-999.0,86,-99.99,,,0.11,weatherlink.com 1.10,2013-07-10 09:09:00,
2013-07-10 04:24:00,74.9,70.0,29.83,East,82,0.0,-999.0,85,-99.99,,,0.11,weatherlink.com 1.10,2013-07-10 09:24:00,
2013-07-10 04:39:00,74.9,70.0,29.84,ENE,71,0.0,-999.0,85,-99.99,,,0.11,weatherlink.com 1.10,2013-07-10 09:39:00,
2013-07-10 04:54:00,74.7,70.0,29.84,ESE,103,1.0,-999.0,84,-99.99,,,0.11,weatherlink.com 1.10,2013-07-10 09:54:00,
2013-07-10 05:09:00,74.3,69.0,29.84,ESE,106,0.0,-999.0,83,-99.99,,,0.11,weatherlink.com 1.10,2013-07-10 10:09:00,
2013-07-10 05:24:00,74.2,69.0,29.84,ESE,106,0.0,-999.0,84,-99.99,,,0.11,weatherlink.com 1.10,2013-07-10 10:24:00,
2013-07-10 05:39:00,73.9,69.0,29.84,ENE,75,0.0,-999.0,85,-99.99,,,0.11,weatherlink.com 1.10,2013-07-10 10:39:00,
2013-07-10 05:54:00,73.9,69.0,29.84,SSE,156,1.0,-999.0,85,-99.99,,,0.11,weatherlink.com 1.10,2013-07-10 10:54:00,
2013-07-10 06:09:00,73.8,69.0,29.84,NNW,330,2.0,-999.0,84,-99.99,,,0.11,weatherlink.com 1.10,2013-07-10 11:09:00,
2013-07-10 06:24:00,73.6,69.0,29.84,NE,34,0.0,-999.0,84,-99.99,,,0.11,weatherlink.com 1.10,2013-07-10 11:24:00,
2013-07-10 06:39:00,73.6,69.0,29.84,NE,39,0.0,-999.0,84,-99.99,,,0.11,weatherlink.com 1.10,2013-07-10 11:39:00,
2013-07-10 06:54:00,73.5,68.0,29.84,SSE,161,1.0,-999.0,83,-99.99,,,0.11,weatherlink.com 1.10,2013-07-10 11:54:00,
2013-07-10 07:09:00,73.4,68.0,29.84,SSE,166,0.0,-999.0,83,-99.99,,,0.11,weatherlink.com 1.10,2013-07-10 12:09:00,
2013-07-10 07:24:00,73.3,68.0,29.85,SSE,148,0.0,-999.0,82,-99.99,,,0.11,weatherlink.com 1.10,2013-07-10 12:24:00,
2013-07-10 07:39:00,73.2,67.0,29.86,SSE,161,1.0,-999.0,81,-99.99,,,0.11,weatherlink.com 1.10,2013-07-10 12:39:00,
2013-07-10 07:54:00,73.1,66.0,29.86,SSW,201,1.0,-999.0,79,-99.99,,,0.11,weatherlink.com 1.10,2013-07-10 12:54:00,
2013-07-10 08:09:00,73.0,65.0,29.86,SSE,151,2.0,-999.0,75,-99.99,,,0.11,weatherlink.com 1.10,2013-07-10 13:09:00,
2013-07-10 08:24:00,72.9,65.0,29.87,SE,141,0.0,-999.0,76,-99.99,,,0.11,weatherlink.com 1.10,2013-07-10 13:24:00,
2013-07-10 08:39:00,73.1,65.0,29.88,SSE,156,0.0,-999.0,75,-99.99,,,0.11,weatherlink.com 1.10,2013-07-10 13:39:00,
2013-07-10 08:54:00,73.4,65.0,29.89,NE,48,3.0,-999.0,75,-99.99,,,0.11,weatherlink.com 1.10,2013-07-10 13:54:00,
2013-07-10 09:09:00,72.6,63.0,29.90,East,87,1.0,-999.0,71,-99.99,,,0.11,weatherlink.com 1.10,2013-07-10 14:09:00,
2013-07-10 09:24:00,72.7,63.0,29.90,SSE,151,1.0,-999.0,71,-99.99,,,0.11,weatherlink.com 1.10,2013-07-10 14:24:00,
2013-07-10 09:39:00,73.3,63.0,29.90,SE,146,1.0,-999.0,69,-99.99,,,0.11,weatherlink.com 1.10,2013-07-10 14:39:00,
2013-07-10 10:10:00,74.2,63.0,29.90,South,180,0.0,-999.0,68,-99.99,,,0.00,weatherlink.com 1.10,2013-07-10 15:10:00,
2013-07-10 10:24:00,74.7,63.0,29.90,SSW,197,0.0,-999.0,67,-99.99,,,0.00,weatherlink.com 1.10,2013-07-10 15:24:00,
2013-07-10 10:39:00,75.1,62.0,29.89,SE,124,1.0,-999.0,65,-99.99,,,0.00,weatherlink.com 1.10,2013-07-10 15:39:00,
2013-07-10 10:54:00,75.5,61.0,29.90,SE,128,1.0,-999.0,61,-99.99,,,0.00,weatherlink.com 1.10,2013-07-10 15:54:00,
2013-07-10 11:09:00,75.8,60.0,29.91,SE,137,2.0,-999.0,59,-99.99,,,0.00,weatherlink.com 1.10,2013-07-10 16:09:00,
2013-07-10 11:24:00,76.8,61.0,29.91,SE,132,0.0,-999.0,58,-99.99,,,0.00,weatherlink.com 1.10,2013-07-10 16:24:00,
2013-07-10 11:39:00,77.8,60.0,29.92,SSE,148,3.0,-999.0,55,-99.99,,,0.00,weatherlink.com 1.10,2013-07-10 16:39:00,
2013-07-10 11:54:00,77.3,60.0,29.92,South,188,0.0,-999.0,55,-99.99,,,0.00,weatherlink.com 1.10,2013-07-10 16:54:00,
2013-07-10 12:12:00,76.5,60.0,29.93,ESE,116,1.0,-999.0,56,-99.99,,,0.00,weatherlink.com 1.10,2013-07-10 17:12:00,
2013-07-10 12:25:00,77.9,60.0,29.93,South,174,0.0,-999.0,55,-99.99,,,0.00,weatherlink.com 1.10,2013-07-10 17:25:00,
2013-07-10 12:40:00,79.1,59.0,29.93,SSE,150,0.0,-999.0,51,-99.99,,,0.00,weatherlink.com 1.10,2013-07-10 17:40:00,
2013-07-10 12:55:00,78.4,59.0,29.94,WSW,243,1.0,-999.0,52,-99.99,,,0.00,weatherlink.com 1.10,2013-07-10 17:55:00,
2013-07-10 13:10:00,79.2,58.0,29.94,SSE,161,0.0,-999.0,49,-99.99,,,0.00,weatherlink.com 1.10,2013-07-10 18:10:00,
2013-07-10 13:25:00,80.1,59.0,29.94,SE,128,0.0,-999.0,49,-99.99,,,0.00,weatherlink.com 1.10,2013-07-10 18:25:00,
2013-07-10 13:40:00,81.1,60.0,29.94,SSE,161,0.0,-999.0,48,-99.99,,,0.00,weatherlink.com 1.10,2013-07-10 18:40:00,
2013-07-10 13:55:00,82.4,58.0,29.93,ESE,122,0.0,-999.0,44,-99.99,,,0.00,weatherlink.com 1.10,2013-07-10 18:55:00,
2013-07-10 14:10:00,82.8,59.0,29.93,SSW,199,0.0,-999.0,44,-99.99,,,0.00,weatherlink.com 1.10,2013-07-10 19:10:00,
2013-07-10 14:25:00,82.4,60.0,29.93,South,183,1.0,-999.0,46,-99.99,,,0.00,weatherlink.com 1.10,2013-07-10 19:25:00,
2013-07-10 14:40:00,83.9,60.0,29.93,SSW,203,0.0,-999.0,44,-99.99,,,0.00,weatherlink.com 1.10,2013-07-10 19:40:00,
2013-07-10 14:55:00,83.8,57.0,29.93,ESE,123,0.0,-999.0,40,-99.99,,,0.00,weatherlink.com 1.10,2013-07-10 19:55:00,
2013-07-10 15:10:00,84.2,59.0,29.93,NW,310,1.0,-999.0,43,-99.99,,,0.00,weatherlink.com 1.10,2013-07-10 20:10:00,
2013-07-10 15:25:00,85.1,59.0,29.93,SSE,161,1.0,-999.0,42,-99.99,,,0.00,weatherlink.com 1.10,2013-07-10 20:25:00,
2013-07-10 15:40:00,84.5,59.0,29.93,East,95,1.0,-999.0,42,-99.99,,,0.00,weatherlink.com 1.10,2013-07-10 20:40:00,
2013-07-10 15:55:00,84.7,58.0,29.92,ESE,123,0.0,-999.0,41,-99.99,,,0.00,weatherlink.com 1.10,2013-07-10 20:55:00,
2013-07-10 16:10:00,83.5,58.0,29.92,SSE,161,1.0,-999.0,42,-99.99,,,0.00,weatherlink.com 1.10,2013-07-10 21:10:00,
2013-07-10 16:25:00,82.2,59.0,29.92,South,180,0.0,-999.0,46,-99.99,,,0.00,weatherlink.com 1.10,2013-07-10 21:25:00,
2013-07-10 16:40:00,82.9,59.0,29.92,NW,322,0.0,-999.0,45,-99.99,,,0.00,weatherlink.com 1.10,2013-07-10 21:40:00,
2013-07-10 16:55:00,83.8,59.0,29.92,South,174,0.0,-999.0,43,-99.99,,,0.00,weatherlink.com 1.10,2013-07-10 21:55:00,
2013-07-10 17:10:00,83.0,58.0,29.92,East,86,0.0,-999.0,43,-99.99,,,0.00,weatherlink.com 1.10,2013-07-10 22:10:00,
2013-07-10 17:25:00,81.8,58.0,29.92,East,82,1.0,-999.0,45,-99.99,,,0.00,weatherlink.com 1.10,2013-07-10 22:25:00,
2013-07-10 17:40:00,80.5,58.0,29.91,SSE,166,0.0,-999.0,47,-99.99,,,0.00,weatherlink.com 1.10,2013-07-10 22:40:00,
2013-07-10 17:55:00,80.1,58.0,29.91,ESE,123,0.0,-999.0,47,-99.99,,,0.00,weatherlink.com 1.10,2013-07-10 22:55:00,
2013-07-10 18:10:00,80.3,58.0,29.92,South,177,0.0,-999.0,47,-99.99,,,0.00,weatherlink.com 1.10,2013-07-10 23:10:00,
2013-07-10 18:25:00,81.0,59.0,29.92,SSE,161,0.0,-999.0,47,-99.99,,,0.00,weatherlink.com 1.10,2013-07-10 23:25:00,
2013-07-10 18:40:00,80.9,59.0,29.92,NW,318,0.0,-999.0,47,-99.99,,,0.00,weatherlink.com 1.10,2013-07-10 23:40:00,
2013-07-10 18:55:00,79.6,59.0,29.92,SW,232,0.0,-999.0,49,-99.99,,,0.00,weatherlink.com 1.10,2013-07-10 23:55:00,
2013-07-10 19:10:00,78.9,59.0,29.91,SSW,196,0.0,-999.0,51,-99.99,,,0.00,weatherlink.com 1.10,2013-07-11 00:10:00,
2013-07-10 19:29:00,77.9,59.0,29.92,SSW,193,0.0,-999.0,53,-99.99,,,0.00,weatherlink.com 1.10,2013-07-11 00:29:00,
2013-07-10 19:41:00,77.4,59.0,29.93,SSW,193,0.0,-999.0,54,-99.99,,,0.00,weatherlink.com 1.10,2013-07-11 00:41:00,
2013-07-10 19:55:00,76.5,60.0,29.93,West,278,0.0,-999.0,56,-99.99,,,0.00,weatherlink.com 1.10,2013-07-11 00:55:00,
2013-07-10 20:10:00,75.9,59.0,29.93,West,278,0.0,-999.0,57,-99.99,,,0.00,weatherlink.com 1.10,2013-07-11 01:10:00,
2013-07-10 20:25:00,75.2,60.0,29.93,West,278,0.0,-999.0,59,-99.99,,,0.00,weatherlink.com 1.10,2013-07-11 01:25:00,
2013-07-10 20:40:00,74.9,60.0,29.94,West,278,0.0,-999.0,60,-99.99,,,0.00,weatherlink.com 1.10,2013-07-11 01:40:00,
2013-07-10 20:55:00,74.5,60.0,29.94,West,278,0.0,-999.0,60,-99.99,,,0.00,weatherlink.com 1.10,2013-07-11 01:55:00,
2013-07-10 21:10:00,74.0,60.0,29.95,West,278,0.0,-999.0,61,-99.99,,,0.00,weatherlink.com 1.10,2013-07-11 02:10:00,
2013-07-10 21:25:00,73.3,59.0,29.96,West,278,0.0,-999.0,62,-99.99,,,0.00,weatherlink.com 1.10,2013-07-11 02:25:00,
2013-07-10 21:40:00,72.2,59.0,29.96,West,278,0.0,-999.0,64,-99.99,,,0.00,weatherlink.com 1.10,2013-07-11 02:40:00,
2013-07-10 21:55:00,71.4,59.0,29.97,West,278,0.0,-999.0,66,-99.99,,,0.00,weatherlink.com 1.10,2013-07-11 02:55:00,
2013-07-10 22:10:00,70.8,60.0,29.97,West,278,0.0,-999.0,68,-99.99,,,0.00,weatherlink.com 1.10,2013-07-11 03:10:00,
2013-07-10 22:25:00,70.5,60.0,29.97,West,278,0.0,-999.0,69,-99.99,,,0.00,weatherlink.com 1.10,2013-07-11 03:25:00,
2013-07-10 22:40:00,69.9,60.0,29.97,West,278,0.0,-999.0,70,-99.99,,,0.00,weatherlink.com 1.10,2013-07-11 03:40:00,
2013-07-10 22:56:00,69.5,60.0,29.97,West,278,0.0,-999.0,71,-99.99,,,0.00,weatherlink.com 1.10,2013-07-11 03:56:00,
2013-07-10 23:11:00,69.2,59.0,29.98,West,278,0.0,-999.0,71,-99.99,,,0.00,weatherlink.com 1.10,2013-07-11 04:11:00,
2013-07-10 23:26:00,68.9,60.0,29.98,West,278,0.0,-999.0,72,-99.99,,,0.00,weatherlink.com 1.10,2013-07-11 04:26:00,
2013-07-10 23:41:00,68.5,59.0,29.99,West,278,0.0,-999.0,72,-99.99,,,0.00,weatherlink.com 1.10,2013-07-11 04:41:00,
2013-07-10 23:56:00,68.1,60.0,29.99,West,278,0.0,-999.0,74,-99.99,,,0.00,weatherlink.com 1.10,2013-07-11 04:56:00,